Location: Bothwell
(42.3833°S, 147.0000°E)
Time: 20:26:54
(UTC+11:00)

BEESAT - Pass Details

Date: 30 September 2022
Orbit: 699 x 706 km, 98.5° (Epoch: 25 November)

Event Time Altitude Azimuth Distance (km) Brightness Sun altitude
Exits shadow 19:07:21 10° 51° (NE) 2,185 ? -10.0°
Reaches altitude 10° 19:07:22 10° 51° (NE) 2,184 ? -10.0°
Maximum altitude 19:11:34 31° 113° (ESE) 1,234 ? -10.8°
Drops below altitude 10° 19:15:49 10° 174° (S) 2,212 ? -11.5°
Sets 19:18:18 0° 183° (S) 3,140 ? -12.0°
